Wind_Speed
19 19 19 19 19 19 20 20 20 21 21 21 20 20 20 19 19 18 19 19 19 19 19 19 19 20 20 20 20 19 19 19 19 20 21 22 21 21 21 21 21 21 21
19 20 20 20 20 20 21 21 21 22 22 21 21 21 21 20 20 20 20 20 20 20 20 20 20 20 21 21 20 20 20 20 20 21 21 22 22 22 21 22 23 23 22
20 20 20 21 21 22 22 22 22 23 23 23 23 23 22 22 21 21 21 21 20 20 21 21 21 20 21 21 21 22 21 21 21 21 22 22 22 22 22 23 23 24 24
20 20 21 22 22 22 23 23 24 24 24 24 24 24 24 24 24 23 22 22 22 22 21 21 21 21 21 22 22 23 23 22 22 21 21 21 22 22 23 23 23 24 25
21 22 22 23 23 24 24 25 25 25 25 25 25 24 25 25 25 24 24 23 23 22 22 22 22 23 23 23 24 24 24 23 23 23 22 22 23 23 23 23 24 24 25
22 23 23 24 25 25 26 26 25 26 26 26 25 25 25 25 26 25 24 24 24 23 23 23 23 24 24 24 25 24 24 24 24 23 22 23 24 24 25 25 25 25 25
24 24 25 25 26 26 26 26 26 26 26 26 25 25 25 26 26 26 25 25 25 24 24 24 24 25 25 26 26 25 25 25 26 25 25 25 25 25 26 26 26 26 27
25 26 26 26 26 27 27 27 27 27 26 26 26 25 24 25 25 25 26 26 26 25 25 24 25 25 25 26 26 26 27 27 27 26 27 27 27 27 27 26 26 27 27
27 27 27 27 28 28 28 28 28 28 27 27 27 26 25 25 25 26 26 25 25 24 24 25 25 25 26 26 26 27 27 27 27 27 28 28 28 28 28 28 27 26 26
28 28 28 28 29 29 28 28 28 28 28 28 27 27 26 26 26 26 26 27 26 26 25 26 27 27 27 28 27 27 27 27 28 27 28 28 28 28 28 28 28 27 27
29 29 29 29 29 28 28 28 28 28 28 28 27 27 27 28 27 27 27 27 27 27 26 26 27 28 29 29 29 28 28 29 29 29 29 29 29 28 28 28 28 28 27
29 29 29 28 27 28 28 27 27 28 28 28 28 28 28 28 28 28 28 28 29 28 27 27 28 28 29 29 29 29 29 29 29 29 29 28 28 28 28 28 28 28 27
29 29 29 27 27 27 27 26 27 27 27 27 27 28 28 29 29 29 29 29 29 29 28 28 29 29 30 29 30 30 30 29 29 29 28 28 28 28 29 29 29 29 29
29 29 27 27 26 26 25 25 25 26 27 27 27 27 27 28 28 28 29 29 29 29 29 30 30 30 30 30 30 30 29 29 29 28 28 27 28 28 29 29 29 29 29
29 28 27 27 26 25 25 24 25 26 26 26 26 26 26 27 28 29 29 29 30 30 31 31 31 30 30 29 29 29 29 29 28 28 28 28 29 29 29 29 29 29 29
28 27 27 27 27 26 26 25 25 25 25 25 25 26 27 28 28 28 29 29 29 30 29 29 29 28 29 28 28 29 29 29 28 28 28 28 29 30 30 30 30 30 30
28 27 26 26 26 26 26 25 25 24 25 25 26 27 27 28 28 28 28 29 29 29 29 28 27 27 27 27 27 28 28 28 28 28 28 28 29 29 29 30 31 31 31
28 27 27 27 27 27 26 25 25 25 25 26 26 27 27 28 28 28 27 28 29 29 28 28 28 27 28 28 28 28 28 28 28 28 29 28 29 29 29 30 31 31 32
27 27 26 26 26 27 27 26 26 26 26 27 27 28 28 28 27 27 26 26 27 28 27 27 28 28 29 29 29 28 28 28 28 28 28 29 30 30 30 31 32 32 32
27 27 27 26 26 26 26 27 27 27 27 27 27 27 27 27 27 27 27 26 27 26 26 27 26 26 27 28 28 28 28 28 29 29 29 30 31 31 31 31 32 32 32
27 26 27 26 27 27 27 27 28 28 27 27 27 27 26 26 26 26 26 26 26 25 25 26 26 26 26 26 26 27 27 28 29 29 30 30 30 30 30 29 30 31 31
26 26 27 27 27 27 27 27 27 27 27 27 27 27 27 27 27 27 27 26 26 26 26 26 26 25 25 25 26 26 27 28 28 29 29 29 29 29 29 29 30 31 31
26 27 27 27 26 27 27 27 27 27 26 26 27 27 27 27 27 26 26 26 26 27 26 26 25 26 25 25 25 26 26 27 28 28 29 29 29 30 30 31 30 30 30
26 27 27 27 27 26 26 26 26 26 27 27 27 27 27 27 27 27 26 26 26 27 26 27 27 27 27 26 26 26 27 28 28 28 28 28 29 29 30 30 30 30 30
27 27 27 28 28 27 27 27 27 27 28 28 28 28 27 28 27 27 27 27 27 27 27 27 27 27 27 27 28 28 28 28 28 28 28 28 29 29 30 30 30 30 30
28 28 28 28 28 28 28 28 28 28 28 28 28 28 28 28 29 28 27 27 28 28 28 28 29 28 28 28 28 28 28 28 28 28 29 29 30 30 31 31 31 31 31
Wind_Direction
288 287 286 286 287 288 285 284 284 284 285 286 287 286 284 280 278 280 280 281 281 279 279 278 277 275 274 272 272 273 272 270 270 267 267 268 267 266 264 258 254 251 252
288 288 287 287 287 286 284 283 284 285 285 285 283 285 284 280 277 279 280 280 280 279 278 278 278 276 274 272 274 274 271 268 270 269 268 268 267 265 263 259 255 253 253
287 288 289 287 287 284 284 284 285 286 285 284 282 282 283 281 280 279 279 278 278 278 277 276 276 275 275 274 276 275 271 268 270 271 269 267 265 263 263 260 258 256 253
287 288 289 287 287 285 285 285 284 284 284 285 282 281 281 280 278 278 276 275 276 276 276 275 275 277 277 277 277 275 272 271 272 272 268 265 265 264 265 262 259 256 253
287 288 289 288 287 287 286 285 284 284 284 284 283 282 281 281 279 276 275 274 274 274 274 275 275 277 277 277 277 274 273 273 272 271 267 267 267 266 265 262 258 258 256
287 288 288 288 288 288 286 286 285 285 285 285 282 281 282 283 281 277 274 273 274 273 273 275 275 277 277 277 276 274 273 273 271 268 266 267 267 267 267 266 262 260 258
286 287 288 289 289 289 286 285 285 285 286 285 283 283 282 282 282 278 274 273 273 272 273 274 276 277 276 275 273 272 274 273 270 267 268 267 268 267 267 267 264 261 258
285 287 288 289 290 288 286 286 285 285 285 285 284 285 283 282 282 281 276 272 273 271 273 274 274 275 276 275 273 273 273 272 271 269 268 268 268 267 268 269 266 262 259
285 287 288 289 289 288 286 285 284 284 284 284 283 284 284 284 283 282 278 276 273 273 274 274 275 274 275 274 274 273 273 273 272 271 269 267 267 267 268 268 267 265 262
287 286 288 290 289 287 285 284 283 282 283 283 281 282 284 285 284 282 279 274 272 273 275 275 276 275 275 274 274 274 274 273 273 272 270 269 268 267 267 265 264 264 264
287 287 287 289 289 287 285 284 282 282 282 281 281 282 283 284 283 282 280 276 273 273 275 275 275 275 274 274 274 274 274 274 272 271 271 270 268 267 266 264 263 263 262
287 287 287 289 289 288 285 284 282 281 283 281 280 279 281 282 282 281 280 278 276 275 274 274 274 275 275 274 274 275 275 275 272 270 270 268 267 266 265 265 263 262 261
286 287 288 287 288 289 288 284 282 282 282 281 281 280 280 280 281 280 280 279 277 276 276 275 274 274 275 274 274 274 275 275 273 270 270 268 266 265 265 264 262 262 261
285 285 285 286 288 289 288 285 284 283 283 282 283 283 282 282 283 282 279 278 277 277 277 277 276 276 276 274 273 274 275 275 274 269 267 268 266 264 264 263 263 263 263
285 283 284 286 288 289 288 286 286 285 283 284 284 284 283 283 283 282 280 277 276 276 276 277 277 277 276 274 274 273 273 274 273 270 267 267 267 266 263 262 263 264 265
283 283 283 284 286 288 288 287 287 286 283 283 283 284 285 285 284 283 281 278 278 277 277 276 276 276 276 274 273 273 272 273 274 271 269 268 268 266 264 263 262 263 267
283 282 283 284 284 286 288 287 287 287 285 285 285 286 286 286 285 283 282 281 279 279 279 277 275 275 275 274 273 273 273 273 272 272 270 269 269 266 263 264 265 265 267
282 282 282 282 283 286 286 286 286 286 286 285 286 287 288 287 286 285 283 282 282 282 280 277 275 274 274 273 272 272 273 272 272 272 270 267 267 266 264 265 266 267 267
281 282 282 282 283 284 285 285 286 286 286 286 287 288 288 287 285 285 284 284 283 283 280 277 275 273 274 274 273 273 273 273 273 273 271 268 267 266 265 266 266 268 268
280 281 282 283 284 284 284 285 286 287 288 289 289 290 289 289 286 285 285 285 285 283 280 277 274 273 274 274 274 274 273 273 273 274 273 271 269 268 268 268 268 269 270
281 280 281 283 284 286 287 286 286 287 289 289 289 289 289 289 288 287 286 287 286 284 282 280 278 277 276 276 276 275 274 274 273 273 273 273 271 270 270 270 270 269 270
280 281 282 283 284 285 286 287 287 288 288 289 289 289 290 290 290 290 289 288 286 285 285 283 280 279 279 278 277 276 275 275 275 275 275 274 273 272 272 272 272 272 270
280 280 281 284 284 285 286 286 286 288 289 290 290 290 290 291 291 291 290 289 288 288 286 284 283 282 281 279 278 277 275 274 275 276 275 275 274 274 274 273 273 272 271
280 280 282 284 284 285 286 286 287 289 290 291 291 291 290 291 291 290 289 288 287 287 286 285 284 283 281 280 280 279 278 277 276 275 275 275 274 273 273 274 273 272 272
281 282 283 283 282 283 284 286 288 289 290 291 291 291 290 291 291 290 288 286 286 287 286 285 284 283 282 280 280 279 278 278 277 276 276 275 274 273 273 273 273 273 272
282 282 283 283 283 284 285 286 287 289 289 290 291 291 291 290 290 288 287 287 287 287 286 285 284 282 281 280 279 278 277 277 277 278 277 276 275 274 274 273 273 273 273
Height
5792 5790 5789 5788 5787 5786 5784 5783 5782 5780 5779 5777 5776 5775 5773 5772 5771 5769 5768 5767 5766 5765 5764 5763 5762 5761 5761 5760 5760 5759 5759 5759 5759 5760 5760 5760 5760 5761 5762 5763 5765 5767 5769
5786 5785 5783 5782 5781 5780 5778 5777 5775 5774 5773 5771 5770 5769 5767 5766 5765 5763 5762 5761 5760 5759 5758 5758 5757 5756 5755 5755 5754 5754 5753 5753 5753 5754 5754 5754 5754 5755 5756 5757 5759 5760 5762
5781 5779 5778 5776 5775 5774 5772 5770 5769 5768 5766 5765 5763 5762 5761 5760 5758 5757 5756 5755 5754 5753 5752 5751 5751 5750 5749 5749 5748 5747 5747 5747 5747 5747 5747 5747 5747 5748 5749 5751 5752 5754 5756
5775 5774 5772 5770 5769 5767 5766 5764 5763 5761 5760 5758 5756 5755 5754 5753 5752 5750 5749 5748 5747 5746 5745 5745 5744 5743 5743 5742 5742 5741 5741 5741 5741 5741 5741 5741 5741 5742 5743 5744 5745 5746 5748
5769 5768 5766 5764 5762 5761 5759 5757 5756 5754 5752 5751 5749 5748 5747 5745 5744 5743 5742 5741 5740 5739 5738 5738 5737 5736 5736 5735 5735 5734 5734 5734 5734 5734 5734 5734 5735 5735 5736 5737 5738 5739 5741
5763 5761 5759 5757 5755 5754 5752 5750 5748 5747 5745 5743 5741 5740 5739 5738 5736 5735 5734 5734 5733 5732 5731 5731 5730 5729 5729 5728 5728 5727 5727 5727 5727 5727 5727 5728 5728 5728 5729 5729 5730 5732 5734
5756 5754 5752 5750 5748 5746 5744 5742 5741 5739 5737 5735 5733 5732 5731 5730 5728 5727 5726 5726 5725 5725 5724 5723 5723 5722 5721 5720 5720 5720 5719 5719 5719 5719 5720 5720 5720 5721 5721 5721 5722 5723 5725
5749 5747 5745 5743 5741 5739 5736 5735 5733 5731 5730 5728 5726 5724 5723 5722 5721 5719 5718 5717 5717 5717 5716 5716 5715 5714 5713 5713 5712 5712 5711 5711 5711 5711 5712 5712 5712 5712 5712 5713 5713 5714 5716
5741 5739 5737 5735 5733 5730 5728 5726 5725 5723 5721 5720 5718 5717 5716 5714 5713 5711 5710 5710 5709 5709 5708 5708 5707 5706 5706 5705 5704 5704 5704 5703 5703 5702 5702 5703 5703 5704 5704 5705 5705 5706 5707
5733 5731 5728 5726 5724 5721 5719 5718 5716 5715 5713 5712 5710 5709 5708 5706 5705 5703 5702 5702 5702 5701 5700 5700 5699 5698 5697 5696 5696 5696 5695 5695 5694 5694 5694 5694 5694 5695 5695 5696 5697 5698 5699
5724 5722 5720 5717 5715 5712 5710 5709 5708 5706 5705 5703 5702 5701 5700 5698 5697 5695 5694 5693 5693 5692 5692 5691 5690 5689 5688 5688 5687 5687 5686 5686 5685 5685 5685 5685 5685 5686 5686 5687 5688 5689 5691
5715 5713 5711 5709 5706 5704 5702 5700 5699 5698 5696 5695 5694 5692 5691 5689 5688 5686 5685 5684 5684 5684 5683 5683 5682 5681 5680 5679 5678 5678 5677 5677 5676 5676 5676 5676 5677 5677 5678 5678 5679 5680 5682
5706 5704 5702 5700 5698 5696 5694 5692 5691 5689 5688 5686 5685 5684 5682 5681 5679 5678 5677 5676 5675 5675 5674 5674 5673 5672 5671 5670 5670 5669 5668 5667 5667 5667 5667 5667 5668 5668 5669 5670 5671 5672 5673
5697 5695 5694 5692 5690 5688 5686 5684 5683 5681 5680 5678 5677 5676 5674 5672 5671 5669 5668 5667 5666 5665 5665 5664 5664 5663 5662 5661 5661 5660 5660 5659 5658 5658 5659 5659 5659 5659 5660 5661 5662 5663 5664
5689 5687 5685 5684 5682 5680 5678 5677 5675 5673 5671 5670 5669 5667 5666 5664 5662 5660 5659 5658 5657 5656 5656 5655 5655 5654 5653 5653 5652 5652 5651 5651 5650 5650 5650 5650 5651 5651 5652 5652 5653 5654 5656
5680 5678 5677 5675 5674 5672 5671 5669 5667 5665 5663 5662 5660 5659 5657 5656 5653 5652 5650 5649 5648 5647 5646 5646 5646 5645 5645 5644 5643 5643 5643 5642 5642 5642 5642 5642 5642 5642 5643 5643 5644 5645 5646
5671 5670 5669 5667 5666 5664 5663 5661 5659 5657 5655 5654 5652 5650 5649 5647 5645 5643 5642 5640 5639 5638 5637 5637 5637 5637 5636 5635 5635 5635 5634 5634 5634 5634 5633 5633 5633 5633 5634 5634 5635 5635 5636
5662 5661 5660 5659 5657 5656 5655 5653 5651 5649 5648 5646 5644 5642 5640 5638 5636 5634 5633 5632 5631 5630 5629 5628 5628 5628 5627 5627 5627 5626 5626 5626 5626 5625 5625 5625 5625 5625 5625 5625 5626 5626 5627
5654 5653 5651 5650 5649 5648 5646 5645 5643 5641 5639 5638 5636 5634 5632 5630 5628 5626 5625 5624 5623 5621 5620 5619 5619 5619 5619 5619 5618 5618 5618 5617 5617 5617 5616 5616 5616 5616 5616 5616 5616 5616 5617
5645 5644 5643 5642 5641 5639 5638 5636 5634 5633 5631 5629 5628 5626 5624 5622 5620 5619 5617 5616 5615 5613 5612 5612 5611 5610 5610 5610 5609 5609 5609 5609 5609 5608 5608 5607 5607 5607 5607 5607 5607 5607 5607
5637 5636 5635 5634 5633 5631 5630 5628 5626 5624 5623 5621 5620 5618 5616 5614 5612 5611 5610 5608 5607 5606 5604 5603 5603 5602 5601 5601 5601 5601 5600 5600 5600 5599 5599 5599 5598 5598 5598 5598 5597 5597 5597
5629 5628 5627 5626 5624 5623 5622 5620 5618 5617 5615 5613 5612 5610 5608 5606 5605 5603 5601 5600 5599 5598 5597 5596 5595 5594 5594 5593 5593 5592 5592 5592 5591 5591 5590 5590 5589 5589 5589 5588 5588 5588 5588
5621 5620 5619 5618 5616 5615 5614 5612 5610 5609 5607 5605 5604 5602 5600 5599 5597 5595 5594 5592 5591 5590 5589 5588 5587 5586 5586 5585 5584 5584 5584 5583 5583 5582 5581 5581 5580 5580 5579 5579 5579 5579 5579
5613 5612 5611 5610 5608 5607 5606 5604 5602 5601 5599 5598 5596 5594 5593 5591 5589 5588 5586 5585 5583 5582 5581 5580 5579 5578 5578 5577 5576 5575 5575 5574 5573 5573 5572 5572 5571 5571 5571 5570 5570 5570 5569
5604 5604 5603 5601 5600 5599 5598 5596 5595 5593 5591 5590 5588 5586 5584 5583 5581 5580 5578 5577 5575 5574 5573 5571 5570 5569 5568 5568 5567 5566 5566 5565 5564 5564 5563 5563 5562 5562 5561 5561 5560 5560 5560
5596 5595 5594 5593 5592 5590 5589 5588 5586 5585 5583 5581 5580 5578 5576 5575 5573 5571 5570 5568 5567 5566 5564 5563 5561 5560 5559 5559 5558 5557 5557 5556 5555 5555 5554 5553 5553 5552 5552 5551 5551 5550 5550